When you browse on this site, cookies collect data to enhance your experience and personalize the content and advertising you see.
Visit our Privacy Policy to learn more. By continuing to use the site, you agree to this use of cookies and data.
  • In Hungary
  • List of Countries
  • For 7 days
  • Water Temperature
  • Satellite Maps
  • Weather Map
  • News
  • Weather Widgets
  • user-avatar
    Login

    Hourly Weather Siemianowka

    Today, 20 May, Monday

    Time Temperature Precipitation Wind Pressure Humidity
    00:00 +17°C° 0 mm 4 mps 745 mmHg 92%
    01:00 +17°C° 0 mm 4 mps 745 mmHg 92%
    02:00 +15°C° 0 mm 4 mps 745 mmHg 93%
    03:00 +15°C° 0 mm 4 mps 744 mmHg 93%
    04:00 +15°C° 0 mm 4 mps 744 mmHg 93%
    05:00 +15°C° 0 mm 4 mps 744 mmHg 94%
    06:00 +16°C° 0.4 mm 5 mps 744 mmHg 90%
    07:00 +17°C° 0.4 mm 5 mps 744 mmHg 87%
    08:00 +20°C° 0.4 mm 6 mps 744 mmHg 84%
    09:00 +20°C° 0 mm 6 mps 744 mmHg 83%
    10:00 +20°C° 0 mm 6 mps 744 mmHg 82%
    11:00 +21°C° 0 mm 6 mps 744 mmHg 82%
    12:00 +22°C° 0.3 mm 7 mps 744 mmHg 77%
    13:00 +23°C° 0.3 mm 7 mps 744 mmHg 71%
    14:00 +26°C° 0.3 mm 7 mps 744 mmHg 66%
    15:00 +26°C° 0.2 mm 7 mps 744 mmHg 68%
    16:00 +24°C° 0.2 mm 7 mps 743 mmHg 69%
    17:00 +24°C° 0.2 mm 7 mps 743 mmHg 70%
    18:00 +23°C° 0.1 mm 7 mps 743 mmHg 74%
    19:00 +22°C° 0.1 mm 6 mps 743 mmHg 77%
    20:00 +20°C° 0.1 mm 6 mps 743 mmHg 81%
    21:00 +20°C° 0.2 mm 5 mps 743 mmHg 83%
    22:00 +19°C° 0.2 mm 5 mps 743 mmHg 85%
    23:00 +19°C° 0.2 mm 5 mps 743 mmHg 87%

    Tomorrow, 21 May, Tuesday

    Time Temperature Precipitation Wind Pressure Humidity
    00:00 +17°C° 0 mm 5 mps 743 mmHg 89%
    01:00 +17°C° 0 mm 5 mps 743 mmHg 92%
    02:00 +17°C° 0 mm 4 mps 743 mmHg 94%
    03:00 +18°C° 0 mm 4 mps 742 mmHg 94%
    04:00 +18°C° 0 mm 4 mps 742 mmHg 94%
    05:00 +18°C° 0 mm 4 mps 742 mmHg 94%
    06:00 +18°C° 0.1 mm 4 mps 742 mmHg 92%
    07:00 +17°C° 0.1 mm 5 mps 742 mmHg 91%
    08:00 +19°C° 0.1 mm 5 mps 742 mmHg 90%
    09:00 +19°C° 0.1 mm 5 mps 742 mmHg 88%
    10:00 +19°C° 0.1 mm 5 mps 742 mmHg 86%
    11:00 +20°C° 0.1 mm 5 mps 742 mmHg 84%
    12:00 +20°C° 0.1 mm 5 mps 742 mmHg 82%
    13:00 +20°C° 0.1 mm 6 mps 742 mmHg 80%
    14:00 +20°C° 0.1 mm 6 mps 741 mmHg 79%
    15:00 +20°C° 0.1 mm 7 mps 741 mmHg 75%
    16:00 +20°C° 0.1 mm 8 mps 741 mmHg 71%
    17:00 +21°C° 0.1 mm 8 mps 741 mmHg 68%
    18:00 +18°C° 0 mm 7 mps 741 mmHg 70%
    19:00 +16°C° 0 mm 7 mps 741 mmHg 72%
    20:00 +15°C° 0 mm 6 mps 741 mmHg 74%
    21:00 +14°C° 0 mm 6 mps 741 mmHg 75%
    22:00 +14°C° 0 mm 6 mps 742 mmHg 77%
    23:00 +14°C° 0 mm 6 mps 742 mmHg 78%

    Day after tomorrow, 22 May, Wednesday

    Time Temperature Precipitation Wind Pressure Humidity
    00:00 +13°C° 0 mm 5 mps 742 mmHg 81%
    01:00 +13°C° 0 mm 4 mps 742 mmHg 85%
    02:00 +12°C° 0 mm 4 mps 742 mmHg 88%
    03:00 +12°C° 0 mm 4 mps 742 mmHg 89%
    04:00 +11°C° 0 mm 3 mps 742 mmHg 91%
    05:00 +11°C° 0 mm 3 mps 742 mmHg 92%
    06:00 +13°C° 0 mm 4 mps 742 mmHg 87%
    07:00 +14°C° 0 mm 4 mps 742 mmHg 81%
    08:00 +17°C° 0 mm 4 mps 743 mmHg 75%
    09:00 +18°C° 0 mm 4 mps 743 mmHg 71%
    10:00 +20°C° 0 mm 5 mps 743 mmHg 67%
    11:00 +21°C° 0 mm 5 mps 743 mmHg 63%
    12:00 +22°C° 0.2 mm 5 mps 742 mmHg 62%
    13:00 +22°C° 0.2 mm 5 mps 742 mmHg 61%
    14:00 +23°C° 0.2 mm 5 mps 742 mmHg 59%
    15:00 +22°C° 0.6 mm 4 mps 742 mmHg 64%
    16:00 +22°C° 0.6 mm 4 mps 742 mmHg 68%
    17:00 +21°C° 0.6 mm 4 mps 742 mmHg 72%
    18:00 +20°C° 0.3 mm 3 mps 742 mmHg 78%
    19:00 +19°C° 0.3 mm 3 mps 742 mmHg 84%
    20:00 +17°C° 0.3 mm 2 mps 742 mmHg 90%
    21:00 +16°C° 0.3 mm 2 mps 742 mmHg 91%
    22:00 +16°C° 0.3 mm 2 mps 742 mmHg 93%
    23:00 +15°C° 0.3 mm 2 mps 742 mmHg 95%

    23 May, Thursday

    Time Temperature Precipitation Wind Pressure Humidity
    00:00 +14°C° 0 mm 2 mps 742 mmHg 96%
    01:00 +14°C° 0 mm 2 mps 742 mmHg 96%
    02:00 +13°C° 0 mm 2 mps 742 mmHg 96%
    03:00 +13°C° 0 mm 2 mps 742 mmHg 97%
    04:00 +13°C° 0 mm 2 mps 742 mmHg 97%
    05:00 +13°C° 0 mm 2 mps 742 mmHg 98%
    06:00 +14°C° 0 mm 2 mps 742 mmHg 96%
    07:00 +15°C° 0 mm 2 mps 742 mmHg 95%
    08:00 +15°C° 0 mm 2 mps 742 mmHg 93%
    09:00 +16°C° 0.1 mm 2 mps 743 mmHg 92%
    10:00 +16°C° 0.1 mm 2 mps 743 mmHg 92%
    11:00 +16°C° 0.1 mm 2 mps 743 mmHg 91%
    12:00 +18°C° 0 mm 3 mps 743 mmHg 83%
    13:00 +19°C° 0 mm 3 mps 742 mmHg 74%
    14:00 +21°C° 0 mm 3 mps 742 mmHg 66%
    15:00 +21°C° 0.1 mm 3 mps 742 mmHg 67%
    16:00 +21°C° 0.1 mm 3 mps 742 mmHg 68%
    17:00 +21°C° 0.1 mm 3 mps 742 mmHg 69%
    18:00 +20°C° 0.4 mm 3 mps 742 mmHg 76%
    19:00 +18°C° 0.4 mm 3 mps 742 mmHg 83%
    20:00 +17°C° 0.4 mm 3 mps 743 mmHg 90%
    21:00 +15°C° 0.1 mm 4 mps 743 mmHg 91%
    22:00 +14°C° 0.1 mm 4 mps 743 mmHg 93%
    23:00 +13°C° 0.1 mm 4 mps 743 mmHg 94%

    24 May, Friday

    Time Temperature Precipitation Wind Pressure Humidity
    00:00 +13°C° 0 mm 4 mps 743 mmHg 93%
    01:00 +12°C° 0 mm 4 mps 743 mmHg 93%
    02:00 +11°C° 0 mm 4 mps 743 mmHg 92%
    03:00 +11°C° 0.1 mm 4 mps 744 mmHg 92%
    04:00 +11°C° 0.1 mm 4 mps 744 mmHg 92%
    05:00 +10°C° 0.1 mm 3 mps 744 mmHg 92%
    06:00 +10°C° 0.1 mm 4 mps 744 mmHg 91%
    07:00 +10°C° 0.1 mm 4 mps 744 mmHg 91%
    08:00 +11°C° 0.1 mm 4 mps 744 mmHg 90%
    09:00 +11°C° 0.1 mm 4 mps 744 mmHg 90%
    10:00 +11°C° 0.1 mm 4 mps 744 mmHg 89%
    11:00 +11°C° 0.1 mm 4 mps 744 mmHg 89%
    12:00 +12°C° 0.1 mm 3 mps 744 mmHg 89%
    13:00 +12°C° 0.1 mm 3 mps 744 mmHg 88%
    14:00 +12°C° 0.1 mm 3 mps 743 mmHg 88%
    15:00 +13°C° 0 mm 3 mps 743 mmHg 87%
    16:00 +15°C° 0 mm 2 mps 743 mmHg 85%
    17:00 +15°C° 0 mm 2 mps 743 mmHg 84%
    18:00 +15°C° 0 mm 2 mps 743 mmHg 85%
    19:00 +15°C° 0 mm 1 mps 743 mmHg 87%
    20:00 +14°C° 0 mm 1 mps 743 mmHg 89%
    21:00 +14°C° 0 mm 2 mps 743 mmHg 91%
    22:00 +13°C° 0 mm 2 mps 743 mmHg 92%
    23:00 +12°C° 0 mm 2 mps 743 mmHg 94%

    25 May, Saturday

    Time Temperature Precipitation Wind Pressure Humidity
    00:00 +12°C° 0 mm 2 mps 743 mmHg 91%
    01:00 +12°C° 0 mm 2 mps 743 mmHg 89%
    02:00 +10°C° 0 mm 2 mps 743 mmHg 86%
    03:00 +10°C° 0 mm 2 mps 743 mmHg 87%
    04:00 +9°C° 0 mm 2 mps 743 mmHg 87%
    05:00 +9°C° 0 mm 2 mps 743 mmHg 88%
    06:00 +12°C° 0 mm 2 mps 743 mmHg 84%
    07:00 +13°C° 0 mm 2 mps 743 mmHg 80%
    08:00 +15°C° 0 mm 2 mps 744 mmHg 76%
    09:00 +16°C° 0 mm 2 mps 744 mmHg 70%
    10:00 +18°C° 0 mm 2 mps 744 mmHg 64%
    11:00 +19°C° 0 mm 2 mps 744 mmHg 58%
    12:00 +20°C° 0 mm 2 mps 743 mmHg 56%
    13:00 +20°C° 0 mm 2 mps 743 mmHg 53%
    14:00 +21°C° 0 mm 2 mps 743 mmHg 51%
    15:00 +20°C° 0 mm 2 mps 743 mmHg 53%
    16:00 +20°C° 0 mm 3 mps 743 mmHg 54%
    17:00 +20°C° 0 mm 3 mps 743 mmHg 55%
    18:00 +19°C° 0 mm 2 mps 743 mmHg 62%
    19:00 +17°C° 0 mm 2 mps 743 mmHg 68%
    20:00 +16°C° 0 mm 2 mps 743 mmHg 74%
    21:00 +15°C° 0 mm 2 mps 743 mmHg 77%
    22:00 +14°C° 0 mm 2 mps 744 mmHg 80%
    23:00 +12°C° 0 mm 2 mps 744 mmHg 83%
    Show more